Regional Weather Roundup
Issued by NWS

Home | Current Version | Previous Version | Text Only | Print | Product List | Glossary On
Versions: 1 2 3 4 5 6 7 8 9 10 11 12 13 14 15 16 17 18 19 20 21 22 23 24 25 26 27 28 29 30 31 32 33 34 35 36 37 38 39 40 41 42 43 44 45 46 47 48 49 50
032
ASUS44 KEWX 270512
RWRTX
SOUTH TEXAS REGIONAL WEATHER ROUNDUP
NATIONAL WEATHER SERVICE AUSTIN/SAN ANTONIO TX
1100 PM CST SUN FEB 26 2017

NOTE: "FAIR" INDICATED FEW OR NO CLOUDS BELOW 12,000 FEET WITH NO
SIGNIFICANT WEATHER AND/OR OBSTRUCTIONS TO VISIBILITY.

* - THESE STATIONS ARE NOT NWS OR FAA STATIONS...AND ARE NOT SUBJECT
    TO NWS AND FAA QUALITY CONTROL.

TXZ171-172-183>190-270600-
TEXAS HILL COUNTRY AND EDWARDS PLATEAU

CITY           SKY/WX    TMP DP  RH WIND       PRES   REMARKS
JUNCTION       PTCLDY    52  50  93 NE3       29.90S
*LLANO         CLOUDY    63  61  94 CALM      29.93S
BURNET         CLOUDY    65  62  90 S7        29.93R
*HORSESHOE BAY   N/A     65  63  91 S7        29.91S
*KERRVILLE     CLOUDY    56  55  95 W3        29.89F
*FREDERICKSBRG CLOUDY    58  57  95 CALM      29.90F
*ROCKSPRINGS   PTCLDY    54  54 100 SE3       29.91S
*BOERNE STAGE  CLOUDY    64  63  94 SE10G17   29.90F
*CASTROVILLE   CLOUDY    68  65  90 SE8       29.88S
HONDO          CLOUDY    67  64  90 E9        29.86F
*UVALDE        CLOUDY    60  57  91 CALM      29.85F
DEL RIO        CLOUDY    61  56  83 CALM      29.83S
LAUGHLIN AFB   PTCLDY    57  56  96 NE8       29.83S
CARRIZO SPRGS  CLEAR     61  55  82 CALM      29.82S
*EAGLE PASS    PTCLDY    59  55  88 NE6       29.84R
$$

TXZ173-191>194-202-209-217>225-228-270600-
CENTRAL AND SOUTH CENTRAL TEXAS

CITY           SKY/WX    TMP DP  RH WIND       PRES   REMARKS
GEORGETOWN     CLOUDY    64  61  88 SE5       29.91S
AUSTIN/BERGSTM CLOUDY    67  64  90 SE8       29.90S
AUSTIN/MABRY   CLOUDY    67  64  90 SE8       29.91S
*AUSTIN/EXEC   CLOUDY    66  66 100 S10       29.91S
*LAGO VISTA    CLOUDY    65  64  94 SE7       29.91S
SAN MARCOS     CLOUDY    66  64  94 S8        29.91F
NEW BRAUNFELS  CLOUDY    68  65  90 SE9       29.88F
RANDOLPH AFB   CLOUDY    68  68 100 SE8       29.88F
PT SAN ANTONIO CLOUDY    69  65  87 SE12      29.85F
SAN ANTONIO    CLOUDY    69  64  84 SE13      29.88F
STINSON FIELD  CLOUDY    70  65  84 SE10      29.85F
*PLEASANTON    PTCLDY    67  64  90 SE7       29.86F
*LA GRANGE     CLOUDY    68  66  93 SE3       29.90F
*GIDDINGS      CLOUDY   N/A N/A N/A SE6       29.93S
*GONZALES      CLOUDY    69  69  99 S10       29.90S
$$

TXZ163>164-176>182-195>201-210>213-226-227-235-270600-
SOUTHEAST TEXAS

CITY           SKY/WX    TMP DP  RH WIND       PRES   REMARKS
COLLEGE STN    CLOUDY    66  62  87 S10       29.94R
*BRYAN         CLOUDY    66  62  87 SE10      29.94S
*CALDWELL      NOT AVBL
*CROCKETT      CLOUDY    64  59  82 S7        29.98S
*BRENHAM       CLOUDY    68  64  86 SE6       29.94R
HUNTSVILLE     MOCLDY    66  60  81 SE8G18    29.94S
CONROE         CLOUDY    66  62  87 SE9       29.96F
HOUSTON BUSH   CLOUDY    67  64  90 SE8       29.96S
HOUSTON HOBBY  CLOUDY    69  65  86 SE9       29.96S
*HOUSTON SW AP CLOUDY    67  65  91 SE6       29.97S
PEARLAND       CLOUDY    71  65  81 SE12      29.98R
HOUSTON HOOKS  CLOUDY    67  63  87 SE7       29.95F
ELLINGTON FLD  CLOUDY    70  64  83 SE9       29.98S
SUGAR LAND     CLOUDY    68  66  93 SE10      29.94F
*HOUSTON EXEC  CLOUDY    66  64  94 SE12      29.95F
*CLEVELAND MUN CLOUDY    65  62  90 SE5       29.98F
*WHARTON       CLOUDY    69  65  87 SE12      29.94F
*COLUMBUS      CLOUDY    67  65  93 SE8       29.93F
*EAGLE LAKE    CLOUDY    70  68  93 SE10      29.92F
$$

TXZ214>216-236>238-270600-
THE UPPER TEXAS COAST

CITY           SKY/WX    TMP DP  RH WIND       PRES   REMARKS
*ORANGE        CLOUDY    67  64  91 SE8       30.02S FOG
PORT ARTHUR    CLOUDY    68  63  84 E14       29.99S
GALVESTON      CLOUDY    69  67  93 SE12      29.97R
ANGLETON       CLOUDY    70  67  90 SE8       29.96S
*BAY CITY      CLOUDY    70  68  93 SE8       29.94F
PALACIOS       CLOUDY    68  66  93 SE13      29.92F
$$

TXZ229>234-239>247-270600-
TEXAS COASTAL BEND AND RIO GRANDE PLAINS

CITY           SKY/WX    TMP DP  RH WIND       PRES   REMARKS
VICTORIA       CLOUDY    67  65  93 E8        29.93R FOG
*BEEVILLE      CLEAR     69  69 100 SE13G18   29.88F
ROCKPORT       CLEAR     70  66  87 S9        29.90F FOG
*PORT ARANSAS  CLEAR     68  66  96 S7        29.91S FOG
*PORT LAVACA   CLOUDY    67  67 100 CALM      29.93R FOG
*INGLESIDE     CLEAR     71  68  91 SE8G16    29.90F
CORPUS CHRISTI CLEAR     69  67  93 S16       29.88F
CORPUS NAS     CLEAR     69  69 100 SE13      29.89F FOG
*ROBSTOWN      CLEAR     71  69  93 SE6G17    29.88F
ALICE          CLEAR     69  66  90 S12       29.87F
KINGSVILLE NAS CLEAR     70  69  97 SE13      29.87F
COTULLA        CLEAR     72  64  76 SE10      29.83R
*FAITH RANCH   PTCLDY    66  57  72 E6        29.82S
LAREDO         CLEAR     73  64  73 SE16      29.83S
$$

TXZ248>255-270600-
DEEP SOUTH TEXAS

CITY           SKY/WX    TMP DP  RH WIND       PRES   REMARKS
BROWNSVILLE    CLEAR     71  68  90 SE9       29.90F
PORT ISABEL    CLEAR     71  68  90 S9        29.90R
*SOUTH PADRE   NOT AVBL
HARLINGEN      CLEAR     69  68  96 SE9       29.89S
*HEBBRONVILLE  CLEAR     69  63  82 S12       29.88S
MCALLEN        CLEAR     73  67  81 SE10      29.89R
*WESLACO       CLOUDY    70  67  89 S8        29.89S
FALFURRIAS     CLEAR    N/A N/A N/A SE8       29.88S
EDINBURG       CLEAR     72  67  82 SE9       29.90S
*ZAPATA        CLEAR     72  64  74 SE9G18    29.85S
$$

TXZ213>215-236>238-242>244-246-247-251-254-255-270600-
CMAN STATIONS

STATION/POSITION TIME  TEMP    WIND        PRES    WAVE
                       AIR SEA DIR/SP/G            HT/PER
                 (UTC) (F)     (DEG/KT/KT) (MB)    (FT/S)
SABINE PASS      0448   66 68  120/ 10/ 12 1016.8
SEA RIM ST PARK  0400   67     120/  9/ 11 1016.2
NORTH JETTY/GLS  0442   71 66  130/ 14/ 16   N/A
EAGLE POINT      0448   67 67  150/  9/ 11 1015.0
MORGANS POINT    0448   67 67  130/  8/ 12 1015.1
MISSION/ARANSAS  0400   70                 1013.0
PORT O`CONNOR    0448   67     120/ 10/ 11 1013.0
PORT ARANSAS     0400   69 67  160/ 11/ 12 1012.6
MALAQUITE BEACH  0448   69 69  150/ 11/ 12 1013.1
BAFFIN BAY       0448   70 71  130/ 11/ 14 1012.6
PORT ISABEL      0448   72 71  150/ 10/ 13 1012.5
$$

GMZ080-GMZ150>470-270600-
OFFSHORE BUOY REPORTS

STATION/POSITION TIME  TEMP    WIND        PRES    WAVE
                       AIR SEA DIR/SP/G            HT/PER
                 (UTC) (F)     (DEG/KT/KT) (MB)    (FT/S)
20 E GALVESTON   0450   67 66  130/ 10/ 12 1014.8    3/ 6
90 E PT ARANSAS  0450   72 70  150/ 14/ 17 1013.6    5/ 6
35 NE PT MANSFLD 0450   74     160/ 19/ 21 1011.6    5/ 6
200 E PT ISABEL  0450   75 74  140/ 16/ 19 1014.9    5/ 6
$$




USA.gov is the U.S. government's official web portal to all federal, state and local government web resources and services.